EUTELSAT QUANTUM

导读

EUTELSAT QUANTUM(量子卫星)是全球首颗全可重编程商业通信卫星,由欧洲通信卫星公司联合空客、欧空局等共同研发,于2021年7月30日在法属圭亚那搭乘阿丽亚娜5型火箭发射入轨地球同步轨道。它突破传统卫星固定功能限制,可在轨实时调整通信波束覆盖与功率,几分钟完成重构,能适配移动覆盖、应急通信等动态需求,设计寿命15年,开创了商业卫星灵活通信的新时代。

基本信息
目录编号:
49056
目录名称:
EUTELSAT QUANTUM
国际标识:
2021-069B
轨道中心:
EARTH
卫星名称:
EUTELSAT QUANTUM
卫星全名:
--
卫星状态:
在轨 (已飞行1834 天)
发射日期:
2021-07-30 UTC
国别 :
(EUTE)
星等 :
--
轨道信息
数据来源 国际轨道数据 AOE轨道数据
星历时间 2026-08-07T11:56:02+0800
14小时前
查看轨道信息
2026-08-05T05:00:00+0800
2天前
查看轨道信息
半长轴 42165.401km 42164.336km
偏心率 0.000219 0.0002323
轨道倾角 0.038° 0.005°
近地点辐角 226.993° 62.820°
升交点赤经 276.032° 68.144°
平近点角 279.363° 185.182°
近地点 35778.029km 35776.404km
远地点 35796.499km 35795.994km
周期 1436.131分钟 1436.077分钟
每日圈数 1.002694 1.002732
详细信息
使用方式:
暂无
2D轨道图
3D轨道图
轨道高度分析图
轨道倾角分析图
轨道综合分析图
查看轨道综合分析图